NORTH MICHIGAN Halfway between North Manitou and Washington Islands (45002)

Conditions for Saturday

Daily
Weekly
Monthly
Marine Data Graph

Marine & Boating Location Search

Enter a coastal zip code for marine weather.

General Information

Location: 45.344 North -86.411 West
Buoy Type: 3-meter discus buoy
Buoy Hull: 3D46
Payload: AMPS payload
Owned by: NDBC
Windspeed: Measured by obtained from anemometer
Sea Surface: Measured by Intake

Weather and Wave Data

Time Temp Humidity Wind Dominant Wave Wind Wave Pressure
  Air
(°F)
Water
(°F)
  Dir Speed
(kts)
Speed
(mph)
Period
(sec)
Height
(ft)
Range
(ft)
Period
(sec)
Height
(ft)
Range
(ft)
Atmo.
(in)
Tend.
(in)
20:00 63 65 96 ESE 5.8 6.7 - - - 30.13 -
20:10 63 64 96 East 5.8 6.7 - - - 30.13 -
20:20 63 64 96 SE 5.8 6.7 - - - 30.13 -
20:30 63 64 96 SSE 5.8 6.7 - - - 30.13 -
20:40 63 64 96 SSE 5.8 6.7 - - - 30.13 -
20:50 63 64 96 SSE 3.9 4.5 0.33 exactly 0.3 - - - 30.14 -
21:10 63 64 96 East 3.9 4.5 - - - 30.13 -
21:20 63 64 97 East 3.9 4.5 - - - 30.13 -
21:30 63 64 98 SE 3.9 4.5 - - - 30.13 -
21:40 63 64 99 SSE 3.9 4.5 - - - 30.13 -
22:10 63 64 98 SSE 5.8 6.7 - - - 30.12 -
22:30 63 64 99 SSE 3.9 4.5 - - - 30.12 -
22:40 63 64 99 SE 5.8 6.7 - - - 30.12 -
22:50 63 64 99 SSE 5.8 6.7 0.33 exactly 0.3 - - - 30.12 -
23:10 63 64 99 SSE 3.9 4.5 - - - 30.12 -
23:30 64 64 95 SSE 3.9 4.5 - - - 30.12 -
23:40 64 64 95 SSE 3.9 4.5 - - - 30.12 -
23:50 64 64 95 SSE 3.9 4.5 0.33 exactly 0.3 - - - 30.12 -
00:20 64 64 95 South 5.8 6.7 - - - 30.11 -
00:40 64 64 95 South 5.8 6.7 - - - 30.11 -
01:00 64 64 95 SSE 3.9 4.5 - - - 30.11 -0.02
01:10 64 64 95 SSE 3.9 4.5 - - - 30.11 -
01:20 64 64 95 South 3.9 4.5 - - - 30.10 -
01:40 64 64 94 South 3.9 4.5 - - - 30.10 -
02:10 64 64 95 SE 3.9 4.5 - - - 30.10 -
02:20 64 64 94 SE 3.9 4.5 - - - 30.10 -
02:40 64 64 95 SSE 3.9 4.5 - - - 30.10 -
02:50 64 64 95 SSE 3.9 4.5 0.33 exactly 0.3 - - - 30.10 -
03:10 64 64 96 SSE 5.8 6.7 - - - 30.09 -
03:20 64 64 97 South 5.8 6.7 - - - 30.09 -
03:30 64 64 96 South 5.8 6.7 - - - 30.09 -
03:40 64 64 97 South 5.8 6.7 - - - 30.09 -
04:00 64 63 96 South 5.8 6.7 - - - 30.09 -0.01
04:10 64 63 95 South 7.8 8.9 - - - 30.09 -
04:30 64 63 95 South 7.8 8.9 - - - 30.09 -
04:40 64 63 95 South 7.8 8.9 - - - 30.09 -
04:50 65 63 91 South 5.8 6.7 0.00 exactly 0.0 - - - 30.09 -
05:00 64 63 94 South 7.8 8.9 - - - 30.08 -0.02
05:10 65 63 90 South 7.8 8.9 - - - 30.07 -
05:20 65 63 89 South 9.7 11.2 - - - 30.07 -
05:30 65 63 89 South 7.8 8.9 - - - 30.07 -
06:10 65 63 90 South 9.7 11.2 - - - 30.06 -
06:20 65 63 90 South 9.7 11.2 - - - 30.06 -
06:30 65 63 90 South 9.7 11.2 - - - 30.06 -
06:40 65 63 90 South 11.7 13.4 - - - 30.06 -
06:50 65 63 90 South 11.7 13.4 0.33 exactly 0.3 - - - 30.06 -
07:00 65 63 90 South 11.7 13.4 - - - 30.06 -0.02
07:20 66 63 85 SSE 11.7 13.4 - - - 30.06 -
07:40 66 63 85 SSE 11.7 13.4 - - - 30.06 -
07:50 66 63 86 SSE 11.7 13.4 0.66 exactly 0.7 - - - 30.05 -
08:10 66 63 86 SSE 11.7 13.4 - - - 30.06 -
08:30 66 63 87 SSE 11.7 13.4 - - - 30.05 -
08:40 67 63 83 SSE 11.7 13.4 - - - 30.05 -
08:50 67 63 83 SSE 11.7 13.4 3 0.98 exactly 1.0 3 1.64 0.82 - 2.46 30.05 -
09:00 66 63 87 SSE 11.7 13.4 - - - 30.04 -0.02
09:10 66 64 87 SSE 11.7 13.4 - - - 30.04 -
09:20 66 64 88 SSE 11.7 13.4 - - - 30.04 -
09:30 66 64 87 SSE 9.7 11.2 - - - 30.03 -
09:40 66 64 87 SSE 11.7 13.4 - - - 30.03 -
09:50 66 64 88 SSE 11.7 13.4 3 0.98 exactly 1.0 3 1.64 0.82 - 2.46 30.03 -
10:40 66 64 90 SSE 11.7 13.4 - - - 30.01 -
10:50 67 64 86 SSE 11.7 13.4 3 1.31 exactly 1.3 3 1.64 0.82 - 2.46 30.01 -
11:20 67 64 88 SSE 11.7 13.4 - - - 30.00 -
11:30 68 64 85 South 11.7 13.4 - - - 30.00 -
11:50 69 64 84 South 17.5 20.1 3 1.64 exactly 1.6 3 1.64 0.82 - 2.46 29.99 -
12:00 69 64 84 South 17.5 20.1 - - - 29.99 -0.05
12:10 68 64 87 South 17.5 20.1 - - - 29.99 -
12:20 68 64 86 South 17.5 20.1 - - - 29.99 -
12:30 67 64 90 South 17.5 20.1 - - - 29.99 -
12:50 67 64 90 South 19.4 22.4 4 2.30 exactly 2.3 4 1.64 0.82 - 2.46 29.98 -
13:00 67 64 91 South 19.4 22.4 - - - 29.98 -0.05
13:10 67 64 92 South 19.4 22.4 - - - 29.98 -
13:40 67 64 90 South 19.4 22.4 - - - 29.97 -
13:50 67 64 90 South 17.5 20.1 4 3.28 exactly 3.3 4 3.28 2.46 - 4.10 29.96 -
14:10 67 64 90 South 17.5 20.1 - - - 29.96 -
14:40 67 64 90 South 19.4 22.4 - - - 29.94 -
14:50 67 64 90 South 19.4 22.4 5 3.61 exactly 3.6 5 3.28 2.46 - 4.10 29.94 -
15:10 67 64 90 South 19.4 22.4 - - - 29.94 -
15:30 67 63 89 South 21.4 24.6 - - - 29.94 -
15:40 67 63 89 South 21.4 24.6 - - - 29.94 -
15:50 67 63 89 South 19.4 22.4 6 4.92 exactly 4.9 6 4.92 4.10 - 5.74 29.93 -
16:10 67 63 89 South 21.4 24.6 - - - 29.93 -
16:30 67 63 89 South 21.4 24.6 - - - 29.92 -
16:50 67 63 89 South 21.4 24.6 6 5.25 exactly 5.2 6 4.92 4.10 - 5.74 29.92 -
17:00 67 63 90 South 21.4 24.6 - - - 29.92 -0.04
17:10 66 63 95 South 19.4 22.4 - - - 29.91 -
17:20 66 63 95 South 19.4 22.4 - - - 29.91 -
17:30 67 63 90 South 19.4 22.4 - - - 29.91 -
17:40 67 63 90 South 21.4 24.6 - - - 29.91 -
18:00 66 63 94 South 19.4 22.4 - - - 29.91 -0.03
18:20 66 63 94 South 19.4 22.4 - - - 29.91 -
18:30 66 63 93 South 19.4 22.4 - - - 29.91 -
18:50 66 63 93 South 19.4 22.4 6 5.58 exactly 5.6 6 4.92 4.10 - 5.74 29.91 -
19:10 66 63 93 SSW 17.5 20.1 - - - 29.91 -
19:30 66 63 94 South 17.5 20.1 - - - 29.91 -
19:40 66 63 94 South 19.4 22.4 - - - 29.91 -
19:50 66 63 93 South 19.4 22.4 7 5.25 exactly 5.2 7 4.92 4.10 - 5.74 29.91 -
20:10 66 63 94 South 19.4 22.4 - - - 29.92 -
20:20 66 63 94 South 19.4 22.4 - - - 29.91 -
20:30 66 63 94 South 21.4 24.6 - - - 29.91 -
20:40 66 63 94 South 21.4 24.6 - - - 29.91 -
20:50 66 63 94 South 21.4 24.6 7 5.91 exactly 5.9 7 6.56 5.74 - 7.38 29.91 -
21:20 66 63 94 South 21.4 24.6 - - - 29.91 -
21:40 66 63 94 South 19.4 22.4 - - - 29.90 -
22:00 66 63 94 South 19.4 22.4 - - - 29.90 -0.01
22:10 66 63 94 South 19.4 22.4 - - - 29.90 -
22:20 66 63 94 South 17.5 20.1 - - - 29.90 -
22:30 66 63 93 South 19.4 22.4 - - - 29.90 -
22:40 66 63 93 South 19.4 22.4 - - - 29.90 -
22:50 66 63 93 South 19.4 22.4 6 5.58 exactly 5.6 6 4.92 4.10 - 5.74 29.90 -
23:20 66 63 94 South 19.4 22.4 - - - 29.89 -
23:30 66 63 94 South 17.5 20.1 - - - 29.89 -
23:40 66 63 93 South 17.5 20.1 - - - 29.88 -
23:50 66 63 93 South 19.4 22.4 6 5.58 exactly 5.6 6 4.92 4.10 - 5.74 29.88 -
00:10 66 63 94 South 19.4 22.4 - - - 29.87 -
00:20 66 63 94 South 19.4 22.4 - - - 29.87 -
00:30 66 63 94 South 19.4 22.4 - - - 29.87 -
00:40 66 63 94 South 19.4 22.4 - - - 29.87 -
01:00 66 63 94 South 19.4 22.4 - - - 29.87 -0.03
01:10 66 63 94 South 19.4 22.4 - - - 29.87 -
01:20 66 63 94 South 19.4 22.4 - - - 29.87 -
01:30 66 63 94 South 17.5 20.1 - - - 29.87 -
01:40 66 63 94 South 19.4 22.4 - - - 29.87 -
01:50 65 63 97 South 19.4 22.4 6 5.58 exactly 5.6 6 4.92 4.10 - 5.74 29.86 -
02:10 66 63 93 South 21.4 24.6 - - - 29.86 -
02:20 65 63 96 South 19.4 22.4 - - - 29.86 -
02:30 65 62 96 South 19.4 22.4 - - - 29.84 -
02:50 65 62 96 South 17.5 20.1 6 5.25 exactly 5.2 6 4.92 4.10 - 5.74 29.83 -
03:10 65 62 96 South 17.5 20.1 - - - 29.83 -
03:20 65 62 95 South 15.6 17.9 - - - 29.83 -
03:30 65 62 96 South 17.5 20.1 - - - 29.83 -
03:50 65 62 96 South 15.6 17.9 6 4.92 exactly 4.9 6 4.92 4.10 - 5.74 29.82 -

Detailed Wave Spectra

Time Water Depth Wave Height Spectral Peak Period Average Wave Period Sampling Interval Wave Record
21:00 594 ft 0.26 ft 3.4 sec 0.6 sec 2400 sec
22:00 594 ft 0.33 ft 3.6 sec 0.6 sec 2400 sec
23:00 594 ft 0.30 ft 3.5 sec 0.6 sec 2400 sec
02:00 594 ft 0.20 ft 3.3 sec 0.6 sec 2400 sec
03:00 594 ft 0.16 ft 3.1 sec 0.6 sec 2400 sec
06:00 594 ft 0.16 ft 2.8 sec 0.6 sec 2400 sec
08:00 594 ft 0.79 ft 2.5 sec 0.6 sec 2400 sec
10:00 594 ft 1.05 ft 2.7 sec 2.7 sec 0.6 sec 2400 sec
14:00 594 ft 3.22 ft 4.0 sec 3.6 sec 0.6 sec 2400 sec
15:00 594 ft 3.64 ft 4.5 sec 4.0 sec 0.6 sec 2400 sec
16:00 594 ft 4.86 ft 5.6 sec 4.4 sec 0.6 sec 2400 sec
19:00 594 ft 5.41 ft 6.3 sec 4.9 sec 0.6 sec 2400 sec
20:00 594 ft 5.18 ft 6.7 sec 4.9 sec 0.6 sec 2400 sec
21:00 594 ft 5.74 ft 6.7 sec 5.0 sec 0.6 sec 2400 sec
00:00 594 ft 5.58 ft 6.3 sec 5.0 sec 0.6 sec 2400 sec
03:00 594 ft 5.41 ft 6.3 sec 4.8 sec 0.6 sec 2400 sec